Total_Precipitation_Accumulation
1.28 1.33 1.24 1.23 1.25 1.24 1.20 1.23 1.29 1.35 1.45 1.47 1.51 1.54 1.54 1.59 1.63 1.72 1.86 2.01 2.01 2.02 1.89 1.92 2.05 2.14 2.34 2.37 2.33 2.29 2.27 2.20 2.10 2.00 1.74 1.54 1.50 1.60 1.67 1.55 1.57 1.63 1.53
1.37 1.30 1.24 1.33 1.36 1.40 1.36 1.33 1.33 1.34 1.33 1.38 1.48 1.43 1.41 1.45 1.52 1.62 1.71 1.75 1.80 1.77 1.67 1.70 1.82 1.90 2.06 2.17 2.27 2.17 2.17 2.15 2.14 2.11 1.88 1.68 1.59 1.60 1.68 1.63 1.52 1.50 1.50
1.37 1.40 1.29 1.21 1.27 1.32 1.35 1.32 1.28 1.27 1.28 1.36 1.47 1.56 1.46 1.37 1.44 1.50 1.54 1.54 1.52 1.45 1.43 1.50 1.58 1.65 1.78 1.89 1.99 2.08 2.10 2.05 2.14 2.12 1.92 1.73 1.57 1.51 1.57 1.53 1.48 1.54 1.44
1.39 1.37 1.36 1.31 1.34 1.28 1.21 1.20 1.19 1.16 1.12 1.17 1.30 1.41 1.44 1.38 1.33 1.31 1.29 1.42 1.40 1.28 1.18 1.18 1.22 1.27 1.40 1.54 1.65 1.81 1.97 2.10 2.17 2.19 2.04 1.78 1.58 1.51 1.58 1.63 1.62 1.53 1.53
1.42 1.43 1.35 1.31 1.27 1.24 1.18 1.09 1.09 1.02 0.99 1.04 1.21 1.37 1.43 1.41 1.41 1.38 1.27 1.28 1.33 1.32 1.24 1.11 1.01 1.04 1.17 1.26 1.35 1.61 1.81 1.98 2.10 2.16 2.06 1.87 1.69 1.59 1.55 1.55 1.63 1.71 1.71
1.20 1.25 1.33 1.31 1.16 1.09 1.04 1.03 1.01 0.96 0.93 0.94 1.03 1.17 1.32 1.29 1.47 1.50 1.39 1.24 1.23 1.24 1.23 1.19 1.16 1.13 1.03 0.98 1.06 1.23 1.48 1.68 1.85 1.95 1.97 1.79 1.61 1.57 1.61 1.62 1.62 1.68 1.73
1.07 1.10 1.17 1.18 1.05 0.98 0.90 0.85 0.88 0.87 0.90 0.90 0.97 1.11 1.26 1.45 1.52 1.34 1.40 1.33 1.25 1.23 1.20 1.19 1.21 1.18 1.24 1.09 1.04 1.03 1.06 1.25 1.51 1.70 1.71 1.62 1.67 1.61 1.57 1.52 1.51 1.51 1.54
0.89 0.94 0.95 0.96 0.93 0.87 0.77 0.75 0.79 0.84 0.89 0.91 0.97 1.06 1.14 1.39 1.48 1.29 1.47 1.47 1.41 1.36 1.30 1.31 1.36 1.38 1.31 1.42 1.37 1.23 1.11 1.10 1.23 1.18 1.25 1.52 1.64 1.67 1.66 1.66 1.69 1.60 1.53
0.68 0.76 0.80 0.83 0.82 0.78 0.74 0.82 0.86 0.85 0.87 0.90 0.89 0.91 0.93 1.05 1.20 1.14 1.28 1.37 1.48 1.46 1.33 1.31 1.34 1.33 1.56 1.64 1.49 1.40 1.28 1.19 1.37 1.42 1.43 1.49 1.57 1.57 1.53 1.58 1.63 1.58 1.51
0.50 0.58 0.65 0.73 0.76 0.81 0.94 1.05 1.08 1.03 0.94 0.87 0.83 0.81 0.83 0.86 1.06 0.94 1.06 1.14 1.31 1.45 1.41 1.34 1.51 1.44 1.46 1.43 1.32 1.46 1.40 1.27 1.19 1.16 1.17 1.24 1.27 1.32 1.38 1.35 1.47 1.51 1.43
0.34 0.42 0.53 0.69 0.78 0.90 1.06 1.10 1.08 1.03 0.92 0.81 0.78 0.77 0.76 0.84 1.05 1.02 1.09 1.11 1.21 1.31 1.35 1.36 1.32 1.46 1.30 1.26 1.26 1.31 1.44 1.40 1.36 1.37 1.29 1.22 1.18 1.17 1.15 1.19 1.29 1.38 1.41
0.40 0.41 0.47 0.59 0.74 0.91 1.05 1.05 1.06 1.06 0.97 0.86 0.83 0.81 0.83 0.94 1.03 1.07 1.08 1.12 1.19 1.23 1.18 1.08 1.09 1.22 1.09 1.06 1.04 1.14 1.32 1.34 1.27 1.32 1.28 1.20 1.14 1.10 1.08 1.10 1.19 1.24 1.25
0.40 0.37 0.38 0.47 0.61 0.79 0.89 0.92 0.96 1.00 0.96 0.91 0.86 0.82 0.84 0.91 1.04 1.21 1.09 1.00 0.98 1.00 1.00 1.02 0.96 0.94 0.94 0.87 0.91 1.04 1.10 1.22 1.30 1.29 1.16 1.06 1.07 1.11 1.13 1.12 1.11 1.16 1.18
0.34 0.37 0.36 0.37 0.40 0.49 0.58 0.64 0.73 0.79 0.80 0.81 0.82 0.82 0.84 0.85 0.85 0.97 1.02 0.94 0.86 0.83 0.81 0.75 0.74 0.77 0.81 0.81 0.81 0.82 0.89 1.12 1.31 1.27 1.15 1.07 1.08 1.12 1.20 1.22 1.20 1.15 1.17
0.35 0.38 0.39 0.40 0.41 0.43 0.45 0.49 0.54 0.58 0.69 0.77 0.78 0.80 0.79 0.78 0.81 0.91 0.91 0.89 0.91 0.94 0.95 0.85 0.78 0.75 0.75 0.77 0.77 0.82 0.95 1.09 1.22 1.16 1.15 1.11 1.10 1.16 1.20 1.24 1.32 1.30 1.22
0.34 0.34 0.33 0.35 0.38 0.38 0.41 0.45 0.50 0.50 0.58 0.62 0.63 0.65 0.61 0.68 0.77 0.76 0.76 0.78 0.84 0.93 0.97 0.92 0.93 0.92 0.90 0.88 0.86 0.82 0.84 0.94 1.04 1.11 1.12 1.13 1.13 1.13 1.12 1.15 1.23 1.28 1.25
0.34 0.33 0.32 0.31 0.35 0.39 0.40 0.44 0.48 0.48 0.45 0.43 0.47 0.50 0.51 0.53 0.55 0.57 0.64 0.72 0.77 0.84 0.84 0.85 0.88 0.86 0.85 0.86 0.85 0.84 0.83 0.83 0.91 1.02 1.15 1.23 1.25 1.25 1.24 1.20 1.18 1.21 1.18
0.36 0.38 0.38 0.38 0.39 0.39 0.41 0.45 0.48 0.50 0.45 0.38 0.38 0.41 0.44 0.48 0.48 0.48 0.50 0.57 0.58 0.63 0.70 0.77 0.79 0.79 0.78 0.80 0.79 0.78 0.78 0.80 0.84 0.90 1.00 1.13 1.29 1.38 1.39 1.36 1.32 1.31 1.29
0.34 0.35 0.38 0.42 0.42 0.42 0.44 0.49 0.48 0.45 0.42 0.38 0.36 0.37 0.43 0.47 0.50 0.53 0.52 0.46 0.45 0.47 0.52 0.61 0.65 0.66 0.68 0.70 0.73 0.78 0.82 0.83 0.84 0.86 0.89 0.93 1.04 1.21 1.31 1.36 1.43 1.53 1.49
0.34 0.39 0.40 0.41 0.44 0.47 0.46 0.45 0.44 0.44 0.43 0.40 0.38 0.38 0.42 0.45 0.43 0.43 0.44 0.46 0.49 0.51 0.51 0.54 0.58 0.61 0.65 0.68 0.71 0.74 0.78 0.81 0.85 0.88 0.89 0.94 1.00 1.07 1.16 1.23 1.28 1.36 1.42
0.37 0.39 0.41 0.40 0.39 0.43 0.44 0.43 0.43 0.42 0.41 0.37 0.36 0.37 0.42 0.44 0.45 0.43 0.43 0.44 0.48 0.52 0.52 0.52 0.53 0.56 0.59 0.65 0.76 0.81 0.80 0.81 0.87 0.94 1.02 1.05 1.08 1.12 1.12 1.17 1.21 1.26 1.32
0.43 0.40 0.37 0.36 0.38 0.40 0.42 0.42 0.43 0.46 0.45 0.41 0.39 0.38 0.41 0.42 0.45 0.44 0.43 0.42 0.43 0.46 0.49 0.52 0.50 0.49 0.52 0.59 0.71 0.85 0.92 0.88 0.87 0.94 1.04 1.11 1.15 1.17 1.19 1.23 1.28 1.33 1.34
0.38 0.40 0.40 0.39 0.40 0.42 0.44 0.43 0.43 0.44 0.46 0.46 0.46 0.44 0.42 0.40 0.39 0.39 0.41 0.43 0.42 0.43 0.47 0.51 0.52 0.52 0.52 0.56 0.65 0.76 0.85 0.93 0.99 1.05 1.12 1.15 1.17 1.19 1.23 1.25 1.26 1.33 1.36
0.34 0.33 0.37 0.42 0.45 0.48 0.48 0.47 0.47 0.46 0.47 0.47 0.46 0.46 0.45 0.44 0.41 0.37 0.37 0.40 0.42 0.43 0.45 0.50 0.54 0.55 0.57 0.59 0.60 0.65 0.72 0.80 0.86 0.92 1.03 1.14 1.18 1.19 1.24 1.27 1.27 1.30 1.37
0.36 0.35 0.37 0.41 0.42 0.44 0.47 0.51 0.57 0.55 0.52 0.49 0.47 0.46 0.44 0.43 0.44 0.41 0.39 0.41 0.44 0.47 0.47 0.47 0.49 0.53 0.59 0.62 0.63 0.68 0.86 0.92 0.89 0.89 0.94 1.07 1.13 1.18 1.25 1.33 1.40 1.44 1.45
0.40 0.38 0.38 0.40 0.42 0.42 0.44 0.49 0.55 0.59 0.58 0.54 0.53 0.53 0.53 0.49 0.49 0.49 0.47 0.48 0.50 0.51 0.53 0.55 0.56 0.57 0.60 0.64 0.67 0.76 0.89 0.87 0.88 0.96 0.98 1.01 1.08 1.13 1.21 1.35 1.41 1.50 1.55